• In Hungary
  • List of Countries
  • For 7 days
  • Water Temperature
  • Satellite Maps
  • Weather Map
  • News
  • Weather Widgets
  • user-avatar
    Login

    Hourly Weather Trzepowo

    Today, 25 September, Tuesday

    Time Temperature Precipitation Wind Pressure Humidity
    00:00 +6°C° 0.1 mm 5 mps 749 mmHg 66%
    01:00 +6°C° 0.1 mm 4 mps 750 mmHg 67%
    02:00 +6°C° 0.1 mm 5 mps 750 mmHg 68%
    03:00 +6°C° 0.1 mm 5 mps 751 mmHg 68%
    04:00 +5°C° 0.1 mm 5 mps 751 mmHg 69%
    05:00 +6°C° 0.1 mm 5 mps 752 mmHg 66%
    06:00 +6°C° 0.1 mm 5 mps 753 mmHg 62%
    07:00 +7°C° 0.1 mm 5 mps 753 mmHg 59%
    08:00 +8°C° 0 mm 6 mps 754 mmHg 53%
    09:00 +9°C° 0 mm 7 mps 755 mmHg 48%
    10:00 +10°C° 0 mm 8 mps 756 mmHg 42%
    11:00 +10°C° 0 mm 7 mps 756 mmHg 40%
    12:00 +11°C° 0 mm 7 mps 757 mmHg 39%
    13:00 +11°C° 0 mm 7 mps 757 mmHg 38%
    14:00 +11°C° 0 mm 6 mps 757 mmHg 39%
    15:00 +10°C° 0 mm 5 mps 757 mmHg 39%
    16:00 +10°C° 0 mm 5 mps 757 mmHg 40%
    17:00 +10°C° 0 mm 4 mps 758 mmHg 45%
    18:00 +8°C° 0 mm 3 mps 758 mmHg 50%
    19:00 +7°C° 0 mm 2 mps 758 mmHg 55%
    20:00 +7°C° 0 mm 2 mps 758 mmHg 59%
    21:00 +7°C° 0 mm 3 mps 758 mmHg 62%
    22:00 +5°C° 0 mm 3 mps 758 mmHg 66%
    23:00 +5°C° 0 mm 3 mps 758 mmHg 70%

    Tomorrow, 26 September, Wednesday

    Time Temperature Precipitation Wind Pressure Humidity
    00:00 +5°C° 0 mm 3 mps 758 mmHg 73%
    01:00 +5°C° 0 mm 4 mps 758 mmHg 76%
    02:00 +5°C° 0 mm 4 mps 758 mmHg 78%
    03:00 +5°C° 0 mm 4 mps 758 mmHg 79%
    04:00 +5°C° 0 mm 5 mps 758 mmHg 80%
    05:00 +6°C° 0 mm 5 mps 757 mmHg 78%
    06:00 +6°C° 0 mm 5 mps 757 mmHg 75%
    07:00 +5°C° 0 mm 6 mps 757 mmHg 72%
    08:00 +8°C° 0 mm 6 mps 757 mmHg 67%
    09:00 +9°C° 0 mm 7 mps 756 mmHg 62%
    10:00 +11°C° 0 mm 8 mps 756 mmHg 57%
    11:00 +11°C° 0.2 mm 8 mps 755 mmHg 59%
    12:00 +10°C° 0.2 mm 7 mps 755 mmHg 61%
    13:00 +10°C° 0.2 mm 7 mps 754 mmHg 63%
    14:00 +10°C° 0.4 mm 7 mps 754 mmHg 63%
    15:00 +10°C° 0.4 mm 7 mps 753 mmHg 62%
    16:00 +10°C° 0.4 mm 7 mps 753 mmHg 62%
    17:00 +10°C° 0.1 mm 7 mps 752 mmHg 61%
    18:00 +10°C° 0.1 mm 7 mps 752 mmHg 59%
    19:00 +11°C° 0.1 mm 7 mps 751 mmHg 58%
    20:00 +11°C° 0 mm 8 mps 751 mmHg 58%
    21:00 +11°C° 0 mm 8 mps 750 mmHg 58%
    22:00 +12°C° 0 mm 9 mps 750 mmHg 57%
    23:00 +12°C° 0 mm 9 mps 750 mmHg 62%

    Day after tomorrow, 27 September, Thursday

    Time Temperature Precipitation Wind Pressure Humidity
    00:00 +12°C° 0 mm 9 mps 749 mmHg 66%
    01:00 +12°C° 0 mm 9 mps 749 mmHg 70%
    02:00 +12°C° 0 mm 8 mps 749 mmHg 73%
    03:00 +12°C° 0 mm 8 mps 749 mmHg 77%
    04:00 +13°C° 0 mm 8 mps 748 mmHg 81%
    05:00 +13°C° 0.1 mm 8 mps 749 mmHg 81%
    06:00 +13°C° 0.1 mm 8 mps 749 mmHg 82%
    07:00 +13°C° 0.1 mm 8 mps 749 mmHg 83%
    08:00 +13°C° 0.1 mm 8 mps 749 mmHg 83%
    09:00 +15°C° 0.1 mm 8 mps 749 mmHg 83%
    10:00 +15°C° 0.1 mm 7 mps 750 mmHg 83%
    11:00 +15°C° 0.1 mm 7 mps 750 mmHg 82%
    12:00 +15°C° 0.1 mm 7 mps 750 mmHg 81%
    13:00 +16°C° 0.1 mm 7 mps 750 mmHg 80%
    14:00 +15°C° 0.1 mm 7 mps 750 mmHg 81%
    15:00 +15°C° 0.1 mm 6 mps 750 mmHg 82%
    16:00 +15°C° 0.1 mm 6 mps 749 mmHg 83%
    17:00 +15°C° 0 mm 5 mps 749 mmHg 84%
    18:00 +14°C° 0 mm 5 mps 749 mmHg 85%
    19:00 +14°C° 0 mm 5 mps 749 mmHg 86%
    20:00 +14°C° 0 mm 5 mps 748 mmHg 85%
    21:00 +14°C° 0 mm 6 mps 748 mmHg 84%
    22:00 +14°C° 0 mm 6 mps 747 mmHg 84%
    23:00 +14°C° 0 mm 6 mps 747 mmHg 83%

    28 September, Friday

    Time Temperature Precipitation Wind Pressure Humidity
    00:00 +15°C° 0 mm 7 mps 746 mmHg 83%
    01:00 +15°C° 0 mm 7 mps 746 mmHg 82%
    02:00 +15°C° 0.1 mm 7 mps 746 mmHg 82%
    03:00 +15°C° 0.1 mm 7 mps 745 mmHg 83%
    04:00 +15°C° 0.1 mm 7 mps 745 mmHg 83%
    05:00 +14°C° 0.1 mm 7 mps 745 mmHg 81%
    06:00 +14°C° 0.1 mm 7 mps 746 mmHg 78%
    07:00 +13°C° 0.1 mm 6 mps 746 mmHg 76%
    08:00 +13°C° 0 mm 6 mps 746 mmHg 68%
    09:00 +14°C° 0 mm 6 mps 747 mmHg 60%
    10:00 +14°C° 0 mm 6 mps 747 mmHg 53%
    11:00 +14°C° 0 mm 6 mps 748 mmHg 49%
    12:00 +15°C° 0 mm 5 mps 748 mmHg 46%
    13:00 +15°C° 0 mm 5 mps 748 mmHg 43%
    14:00 +14°C° 0 mm 4 mps 748 mmHg 45%
    15:00 +14°C° 0 mm 4 mps 748 mmHg 46%
    16:00 +13°C° 0 mm 4 mps 748 mmHg 48%
    17:00 +12°C° 0 mm 3 mps 748 mmHg 52%
    18:00 +12°C° 0 mm 2 mps 748 mmHg 57%
    19:00 +10°C° 0 mm 2 mps 748 mmHg 62%
    20:00 +10°C° 0 mm 2 mps 748 mmHg 62%
    21:00 +11°C° 0 mm 1 mps 749 mmHg 63%
    22:00 +11°C° 0 mm 1 mps 749 mmHg 63%
    23:00 +10°C° 0 mm 1 mps 749 mmHg 66%

    29 September, Saturday

    Time Temperature Precipitation Wind Pressure Humidity
    00:00 +9°C° 0 mm 1 mps 749 mmHg 69%
    01:00 +9°C° 0 mm 1 mps 748 mmHg 72%
    02:00 +8°C° 0 mm 1 mps 749 mmHg 75%
    03:00 +8°C° 0 mm 1 mps 749 mmHg 78%
    04:00 +8°C° 0 mm 1 mps 749 mmHg 80%
    05:00 +8°C° 0 mm 1 mps 749 mmHg 80%
    06:00 +8°C° 0 mm 1 mps 750 mmHg 79%
    07:00 +9°C° 0 mm 1 mps 750 mmHg 79%
    08:00 +11°C° 0 mm 1 mps 750 mmHg 70%
    09:00 +12°C° 0 mm 1 mps 751 mmHg 62%
    10:00 +14°C° 0 mm 1 mps 751 mmHg 53%
    11:00 +14°C° 0 mm 1 mps 751 mmHg 50%
    12:00 +15°C° 0 mm 1 mps 751 mmHg 46%
    13:00 +16°C° 0 mm 1 mps 751 mmHg 43%
    14:00 +15°C° 0 mm 1 mps 751 mmHg 44%
    15:00 +15°C° 0 mm 1 mps 751 mmHg 46%
    16:00 +15°C° 0 mm 1 mps 751 mmHg 47%
    17:00 +13°C° 0 mm 2 mps 751 mmHg 52%
    18:00 +12°C° 0 mm 2 mps 751 mmHg 56%
    19:00 +10°C° 0 mm 2 mps 751 mmHg 61%
    20:00 +9°C° 0 mm 2 mps 751 mmHg 64%
    21:00 +9°C° 0 mm 2 mps 751 mmHg 66%
    22:00 +8°C° 0 mm 2 mps 750 mmHg 69%
    23:00 +8°C° 0 mm 2 mps 750 mmHg 71%

    30 September, Sunday

    Time Temperature Precipitation Wind Pressure Humidity
    00:00 +8°C° 0 mm 2 mps 750 mmHg 73%
    01:00 +7°C° 0 mm 3 mps 750 mmHg 75%
    02:00 +7°C° 0 mm 3 mps 749 mmHg 76%
    03:00 +7°C° 0 mm 3 mps 749 mmHg 78%
    04:00 +5°C° 0 mm 3 mps 748 mmHg 79%
    05:00 +7°C° 0 mm 3 mps 748 mmHg 78%
    06:00 +7°C° 0 mm 3 mps 748 mmHg 76%
    07:00 +6°C° 0 mm 4 mps 747 mmHg 74%
    08:00 +8°C° 0 mm 4 mps 747 mmHg 68%
    09:00 +9°C° 0 mm 5 mps 747 mmHg 62%
    10:00 +10°C° 0 mm 5 mps 747 mmHg 56%
    11:00 +12°C° 0 mm 5 mps 746 mmHg 53%
    12:00 +13°C° 0 mm 5 mps 746 mmHg 50%
    13:00 +14°C° 0 mm 5 mps 745 mmHg 46%
    14:00 +14°C° 0 mm 5 mps 745 mmHg 47%
    15:00 +13°C° 0 mm 5 mps 744 mmHg 48%
    16:00 +13°C° 0 mm 5 mps 744 mmHg 49%
    17:00 +12°C° 0 mm 4 mps 743 mmHg 52%
    18:00 +11°C° 0 mm 4 mps 743 mmHg 55%
    19:00 +10°C° 0 mm 4 mps 743 mmHg 59%
    20:00 +10°C° 0 mm 4 mps 743 mmHg 60%
    21:00 +10°C° 0 mm 4 mps 742 mmHg 62%
    22:00 +10°C° 0 mm 4 mps 742 mmHg 63%
    23:00 +8°C° 0 mm 4 mps 742 mmHg 67%
    Show more